DAL1778 MDPP-KATL

Flight info

Callsign DAL1778
Flight time N/A
Altitude 18000
Route PTA L343 MALVN/N0463F340 Y396 RUMFO Y443 SUMAC/N0458F360 Y280 OCTAL Q77 MJAMS/N0449F350 Q77 SHRKS/N0451F360 DCT LAIRI DCT LARZZ JJEDI4
Aircraft A321/M-SDE3FGHIRWY/LB1

Departure

Time 2026-04-23 19:35
Airport Gregorio Luperon International Airport (MDPP)

Arrival

Time N/A
Airport Hartsfield Jackson Atlanta International Airport (KATL)
Time Latitude Longitude Altitude Speed Heading
2026-04-23 19:28 19.75623 -70.56419 35 ft 0 kts 208°
2026-04-23 19:28 19.75628 -70.56416 35 ft 3 kts 208°
2026-04-23 19:29 19.75645 -70.56408 33 ft 3 kts 170°
2026-04-23 19:29 19.75664 -70.56436 34 ft 1 kts 68°
2026-04-23 19:30 19.75664 -70.56437 34 ft 0 kts 66°
2026-04-23 19:30 19.75665 -70.56434 34 ft 4 kts 65°
2026-04-23 19:31 19.75724 -70.56371 35 ft 15 kts
2026-04-23 19:31 19.75817 -70.56398 35 ft 13 kts 342°
2026-04-23 19:31 19.75895 -70.56425 36 ft 11 kts 341°
2026-04-23 19:31 19.75932 -70.56491 37 ft 15 kts 263°
2026-04-23 19:32 19.75894 -70.56633 37 ft 25 kts 252°
2026-04-23 19:32 19.75831 -70.56841 35 ft 34 kts 252°
2026-04-23 19:32 19.75752 -70.57114 34 ft 42 kts 253°
2026-04-23 19:32 19.75668 -70.57403 33 ft 41 kts 253°
2026-04-23 19:33 19.75588 -70.57687 34 ft 39 kts 253°
2026-04-23 19:33 19.75509 -70.57955 36 ft 37 kts 252°
2026-04-23 19:33 19.75400 -70.58373 36 ft 8 kts 217°
2026-04-23 19:34 19.75396 -70.58349 32 ft 5 kts 71°
2026-04-23 19:34 19.75451 -70.58166 37 ft 58 kts 74°
2026-04-23 19:34 19.75892 -70.56598 94 ft 150 kts 75°
2026-04-23 19:35 19.76179 -70.55586 741 ft 140 kts 72°
2026-04-23 19:35 19.76473 -70.54591 1273 ft 142 kts 73°
2026-04-23 19:35 19.76771 -70.53585 1751 ft 147 kts 72°
2026-04-23 19:35 19.77094 -70.52486 1939 ft 166 kts 73°
2026-04-23 19:36 19.77651 -70.51330 2069 ft 190 kts 44°
2026-04-23 19:36 19.78951 -70.50824 2213 ft 218 kts
2026-04-23 19:36 19.80560 -70.50884 2385 ft 243 kts
2026-04-23 19:36 19.82286 -70.50653 2832 ft 255 kts 15°
2026-04-23 19:37 19.83988 -70.50153 3675 ft 259 kts 20°
2026-04-23 19:37 19.85725 -70.49554 4414 ft 266 kts 20°
2026-04-23 19:37 19.87498 -70.48929 5115 ft 271 kts 19°
2026-04-23 19:37 19.89275 -70.48317 5797 ft 266 kts 18°
2026-04-23 19:38 19.91022 -70.47732 6529 ft 262 kts 17°
2026-04-23 19:38 19.92809 -70.47353 7246 ft 264 kts
2026-04-23 19:38 19.94656 -70.47254 7966 ft 267 kts
2026-04-23 19:38 19.96521 -70.47206 8719 ft 269 kts 351°
2026-04-23 19:39 19.98273 -70.47778 9459 ft 268 kts 325°
2026-04-23 19:39 19.99644 -70.49084 10215 ft 267 kts 303°
2026-04-23 19:39 20.00413 -70.50925 10598 ft 281 kts 278°
2026-04-23 19:39 20.00546 -70.53064 10846 ft 301 kts 271°
2026-04-23 19:40 20.00602 -70.55368 10966 ft 322 kts 270°
2026-04-23 19:40 20.00655 -70.57814 11132 ft 339 kts 270°
2026-04-23 19:40 20.00713 -70.60348 11566 ft 346 kts 270°
2026-04-23 19:40 20.00780 -70.62920 12121 ft 350 kts 271°
2026-04-23 19:41 20.00852 -70.65490 12671 ft 353 kts 271°
2026-04-23 19:41 20.00929 -70.68107 13305 ft 355 kts 271°
2026-04-23 19:41 20.01008 -70.70741 13868 ft 357 kts 271°
2026-04-23 19:41 20.01089 -70.73391 14416 ft 359 kts 271°
2026-04-23 19:42 20.01170 -70.76051 14904 ft 363 kts 271°
2026-04-23 19:42 20.01249 -70.78739 15416 ft 365 kts 271°
2026-04-23 19:42 20.01327 -70.81450 15887 ft 369 kts 271°
2026-04-23 19:42 20.01401 -70.84182 16398 ft 370 kts 271°
2026-04-23 19:43 20.01472 -70.86887 16885 ft 373 kts 271°
2026-04-23 19:43 20.01546 -70.89643 17434 ft 373 kts 271°
2026-04-23 19:43 20.01623 -70.92410 17916 ft 375 kts 271°
2026-04-23 19:43 20.01700 -70.95189 18368 ft 378 kts 271°
2026-04-23 19:44 20.01777 -70.97991 18759 ft 380 kts 271°
2026-04-23 19:44 20.01854 -71.00801 19167 ft 381 kts 271°
2026-04-23 19:44 20.01930 -71.03626 19571 ft 383 kts 271°
2026-04-23 19:44 20.02008 -71.06457 19973 ft 384 kts 271°
2026-04-23 19:45 20.02180 -71.09295 20371 ft 386 kts 279°
2026-04-23 19:45 20.02905 -71.12002 20767 ft 388 kts 292°
2026-04-23 19:45 20.04249 -71.14503 21160 ft 393 kts 305°
2026-04-23 19:45 20.06145 -71.16610 21541 ft 399 kts 318°
2026-04-23 19:46 20.08484 -71.18237 21932 ft 404 kts 326°
2026-04-23 19:46 20.10905 -71.19758 22314 ft 405 kts 325°
2026-04-23 19:46 20.13333 -71.21288 22712 ft 406 kts 325°
2026-04-23 19:46 20.15766 -71.22828 23093 ft 408 kts 325°
2026-04-23 19:47 20.17381 -71.23851 23347 ft 409 kts 325°
2026-04-23 19:47 20.20657 -71.25926 23796 ft 411 kts 324°
2026-04-23 19:47 20.23086 -71.27463 24088 ft 412 kts 324°